{"data":{"norad_id":54083,"epoch":"2026-09-20T22:00:03.000096Z","epoch_age_seconds":53171,"freshness":"FRESH","line1":"1 54083U 22136AJ  26263.91670139  .00000894  00000+0  48404-4 0  9993","line2":"2 54083  53.1614 175.5765 0001411  86.4751  64.0324 15.25293021  5707","mean_motion":15.25293021,"eccentricity":0.0001411,"inclination_deg":53.1614,"raan_deg":175.5765,"arg_perigee_deg":86.4751,"mean_anomaly_deg":64.0324,"bstar":4.8404e-5,"rev_number":570,"period_min":94.408089473583,"perigee_km":488.93660810748,"apogee_km":490.8747697543,"semimajor_km":6868.0426889309,"source":"CELESTRAK","updated_at":"2026-09-21T09:00:33.081493Z"}}